[[{"header":{"parameterUnit":"m.s-1","parameterCategory":1,"la1":30.2991,"la2":30.254,"lo1":-89.0895,"lo2":-89.0444,"dy":0.0017,"dx":0.0017,"nx":28,"ny":28,"refTime":"2023-08-13T09:00:00:Z","depth":0,"parameterNumber":2,"parameterNumberName":"U-component_of_WINDS"},"data":[0,0,0,0,0,0,0,0,0,0,0,0,0,0,0,0,0,0,0,0,0,0,0,0,0,0,0,0,0,0,0,0,0,0,0,0,0,0,0,0,0,0,0,0,0,0,0,0,0,0,0,0,0,0,0,0,0,0,0.8897,0.8898,0,0.897,0.897,0.8971,0.8982,0.8981,0.898,0.898,0.9052,0.9055,0.9057,0,0,0,0,0,0,0,0,0,0,0,0,0,0.8766,0.8768,0.8897,0.8898,0.8899,0.8969,0.897,0.8971,0.8982,0.8981,0.898,0.8979,0.9052,0.9055,0.9058,0,0,0,0,0,0,0,0,0,0,0,0,0,0.8829,0.8769,0.8897,0.8913,0.8915,0.8969,0.897,0.8972,0.8982,0.8981,0.898,0.8979,0.9051,0.9054,0.9058,0.9102,0,0,0.907,0.9071,0,0,0,0,0,0,0,0,0.8825,0.8834,0.891,0.8912,0.8914,0.8966,0.8951,0.9015,0.8982,0.8956,0.898,0.8979,0.9024,0.903,0.9046,0.9105,0.9108,0.907,0.9072,0.9074,0.9075,0,0,0,0,0,0,0,0.8821,0.883,0.8926,0.8911,0.8913,0.8915,0.8923,0.8963,0.8995,0.8959,0.896,0.8968,0.9025,0.9042,0.9048,0.9109,0.907,0.9073,0.9076,0.9077,0.9205,0.9206,0,0,0,0,0,0,0.8814,0.8827,0.8923,0.8928,0.8866,0.8918,0.8927,0.895,0.8995,0.9,0.8969,0.8968,0.9036,0.9043,0.905,0.9103,0.9074,0.9078,0.908,0.9204,0.9206,0.9207,0,0,0,0,0,0,0.8811,0.8822,0.8921,0.8878,0.889,0.8922,0.8947,0.8952,0.8969,0.9002,0.9008,0.898,0.9036,0.9045,0.9088,0.9105,0.9079,0.9083,0.9203,0.9205,0.9206,0.9208,0,0,0,0,0,0,0.8807,0.8821,0.8839,0.8878,0.8893,0.8958,0.8948,0.8954,0.8976,0.8976,0.9015,0.902,0.9036,0.9083,0.9092,0.911,0.9086,0.9202,0.9204,0.9206,0.9207,0.921,0.9213,0,0,0,0,0,0.8802,0.8837,0.884,0.8851,0.8915,0.8959,0.8967,0.8985,0.8977,0.8994,0.9015,0.9019,0.9102,0.9087,0.9098,0.9117,0.9201,0.9203,0.9206,0.9206,0.9209,0.9213,0,0,0,0,0,0,0.8798,0.8842,0.8846,0.8894,0.8923,0.8961,0.8983,0.8989,0.902,0.9019,0.9039,0.9047,0.9089,0.9108,0.909,0.9161,0.9151,0.9155,0.9147,0.9151,0.9153,0.9148,0.9089,0,0,0,0,0,0.8803,0.8836,0.8872,0.8911,0.8925,0.8952,0.8971,0.8982,0.9013,0.9025,0.905,0.9078,0.9111,0.9132,0.9164,0.921,0.9218,0.9228,0.9231,0.9233,0.9237,0.9261,0.9266,0.9215,0.9215,0.9215,0,0,0.8813,0.8841,0.886,0.8911,0.8934,0.8967,0.8962,0.8997,0.9021,0.903,0.9072,0.9091,0.9125,0.9169,0.919,0.9186,0.9253,0.9237,0.9238,0.9241,0.9264,0.9269,0.9273,0.9217,0.9216,0.9216,0,0,0.8847,0.8873,0.8907,0.8931,0.8966,0.8984,0.8992,0.9029,0.9042,0.9085,0.9092,0.912,0.9177,0.92,0.9219,0.9261,0.9264,0.9271,0.9285,0.9308,0.9312,0.9315,0.9329,0.9334,0.9274,0.9274,0.9274,0,0.8855,0.8905,0.8924,0.8958,0.8979,0.899,0.9024,0.9046,0.909,0.9104,0.9099,0.9168,0.9192,0.9241,0.9251,0.9267,0.9275,0.9266,0.931,0.9314,0.9317,0.933,0.9336,0.9275,0.9275,0.9275,0.9274,0,0.8912,0.8946,0.897,0.9012,0.9036,0.907,0.9093,0.9115,0.9123,0.9141,0.9183,0.9212,0.9249,0.9261,0.927,0.9311,0.9307,0.9306,0.9296,0.9322,0.9335,0.934,0.9275,0.9275,0.9275,0.9275,0,0,0.8946,0.8998,0.9006,0.9024,0.9064,0.9091,0.9125,0.9161,0.9179,0.9209,0.9237,0.9283,0.9282,0.9303,0.9315,0.9335,0.9365,0.9331,0.9332,0.9335,0.941,0.941,0.9416,0.9368,0.9369,0.937,0.9407,0,0.8984,0.9045,0.9063,0.9114,0.9145,0.9155,0.9184,0.9211,0.9228,0.9256,0.9275,0.9307,0.9303,0.9316,0.9337,0.9357,0.938,0.9354,0.9393,0.9394,0.9383,0.9423,0.9423,0.9457,0.9412,0.9413,0.9413,0,0.9037,0.9068,0.9122,0.9157,0.917,0.9196,0.923,0.9258,0.9288,0.9298,0.9322,0.9331,0.9366,0.9355,0.9402,0.9384,0.9401,0.9413,0.9414,0.9418,0.9405,0.9426,0.9468,0.9473,0.9422,0.9421,0.942,0,0.9054,0.9109,0.9149,0.9165,0.9206,0.9224,0.9242,0.9272,0.9292,0.9321,0.9335,0.9368,0.9386,0.9411,0.9428,0.9419,0.9473,0.9464,0.9482,0.9482,0.9493,0.9491,0.9537,0.9505,0.9505,0.9505,0.9505,0,0.9094,0.9127,0.9157,0.9181,0.9217,0.9236,0.9272,0.929,0.9316,0.9343,0.9353,0.9378,0.94,0.9428,0.9442,0.9478,0.9486,0.9495,0.9498,0.9494,0.9492,0.9504,0.9502,0.9506,0.9506,0.9506,0.9505,0,0.912,0.9142,0.9185,0.9221,0.923,0.9255,0.9285,0.9308,0.9325,0.9359,0.9368,0.9395,0.9428,0.9448,0.949,0.9499,0.9538,0.9541,0.9528,0.9529,0.9546,0.9544,0.96,0.9607,0.9571,0.9572,0.9572,0,0.9144,0.9169,0.9207,0.9226,0.9244,0.9275,0.9296,0.9315,0.9336,0.9372,0.939,0.9424,0.9451,0.9503,0.9526,0.9557,0.956,0.9578,0.9565,0.9559,0.9559,0.9557,0.9559,0.958,0.958,0.958,0.958,0,0.9183,0.9192,0.9222,0.9255,0.9279,0.9306,0.9333,0.9348,0.9372,0.9394,0.9428,0.945,0.9492,0.9525,0.9558,0.9576,0.9582,0.9584,0.959,0.9585,0.9576,0.958,0.9533,0.9583,0.9583,0.9582,0.9582,0.9582,0.9207,0.923,0.926,0.9292,0.9314,0.9339,0.9362,0.9382,0.941,0.9447,0.9456,0.9491,0.9519,0.9565,0.9583,0.961,0.9607,0.9616,0.9618,0.962,0.9619,0.9572,0.9616,0.9616,0.9616,0.9616,0.9616,0,0.9246,0.9266,0.9295,0.9332,0.9357,0.9361,0.9391,0.9411,0.9442,0.9468,0.9495,0.9533,0.9565,0.959,0.9622,0.9638,0.9642,0.9646,0.9644,0.9648,0.962,0.9612,0.9643,0.9643,0.9643,0.9643,0.9643,0.9643,0.9269,0.9306,0.9319,0.9367,0.9386,0.9421,0.9437,0.9459,0.948,0.9522,0.9549,0.9565,0.959,0.9624,0.9652,0.9659,0.967,0.9673,0.968,0.9653,0.965,0.9647,0.9639,0.9676,0.9676,0.9705,0.9705,0.9706]},{"header":{"parameterUnit":"m.s-1","parameterCategory":1,"la1":30.2991,"la2":30.254,"lo1":-89.0895,"lo2":-89.0444,"dy":0.0017,"dx":0.0017,"nx":28,"ny":28,"refTime":"2023-08-13T09:00:00:Z","depth":0,"parameterNumber":3,"parameterNumberName":"V-component_of_WINDS"},"data":[0,0,0,0,0,0,0,0,0,0,0,0,0,0,0,0,0,0,0,0,0,0,0,0,0,0,0,0,0,0,0,0,0,0,0,0,0,0,0,0,0,0,0,0,0,0,0,0,0,0,0,0,0,0,0,0,0,0,4.2887,4.2886,0,4.2846,4.2846,4.2845,4.2754,4.2752,4.275,4.2748,4.2709,4.2709,4.271,0,0,0,0,0,0,0,0,0,0,0,0,0,4.2886,4.2887,4.2887,4.2886,4.2886,4.2846,4.2846,4.2845,4.2754,4.2752,4.275,4.2748,4.2708,4.2709,4.271,0,0,0,0,0,0,0,0,0,0,0,0,0,4.287,4.2887,4.2887,4.2836,4.283,4.2846,4.2846,4.2845,4.2755,4.2752,4.2749,4.2746,4.2708,4.2709,4.271,4.2773,0,0,4.2713,4.2714,0,0,0,0,0,0,0,0,4.2871,4.287,4.2844,4.2839,4.2833,4.2802,4.2831,4.2821,4.2755,4.2784,4.2748,4.2745,4.2742,4.274,4.2739,4.2771,4.2769,4.2713,4.2714,4.2714,4.2715,0,0,0,0,0,0,0,4.2872,4.2872,4.2871,4.2843,4.2837,4.2815,4.2809,4.2829,4.2779,4.2781,4.2774,4.2771,4.2739,4.2738,4.2737,4.2769,4.2713,4.2714,4.2715,4.2715,4.2849,4.2852,0,0,0,0,0,0,4.2881,4.2873,4.2872,4.2869,4.2846,4.2817,4.2811,4.2815,4.2779,4.277,4.2773,4.2766,4.2738,4.2736,4.2735,4.2805,4.2714,4.2715,4.2716,4.2846,4.285,4.2853,0,0,0,0,0,0,4.2881,4.2882,4.2874,4.2869,4.2867,4.282,4.2825,4.2816,4.2815,4.2773,4.2764,4.2781,4.2735,4.2734,4.2764,4.2803,4.2716,4.2717,4.2843,4.2847,4.2851,4.2946,0,0,0,0,0,0,4.2882,4.2882,4.2905,4.2871,4.2867,4.2903,4.2828,4.2817,4.2817,4.2808,4.2778,4.277,4.2733,4.2763,4.2765,4.2802,4.2718,4.2839,4.2845,4.285,4.294,4.2954,4.2966,0,0,0,0,0,4.2882,4.2934,4.2907,4.2907,4.2895,4.2905,4.2903,4.2859,4.282,4.2843,4.2816,4.2771,4.2799,4.2767,4.2768,4.2807,4.2836,4.2843,4.285,4.2934,4.2951,4.2965,0,0,0,0,0,0,4.2976,4.2929,4.2898,4.2941,4.2928,4.289,4.2917,4.2878,4.2876,4.2868,4.2813,4.2807,4.2844,4.2829,4.2794,4.2865,4.281,4.2817,4.2874,4.2889,4.2902,4.2905,4.2718,0,0,0,0,0,4.3001,4.3013,4.2972,4.3013,4.3008,4.2964,4.2967,4.2934,4.2918,4.2912,4.2887,4.2874,4.2879,4.2884,4.2886,4.2937,4.2929,4.2965,4.2978,4.2988,4.2995,4.3019,4.3034,4.2875,4.2875,4.2875,0,0,4.3055,4.303,4.3041,4.3032,4.3017,4.303,4.296,4.2977,4.2986,4.2915,4.294,4.2922,4.2904,4.2944,4.2961,4.2932,4.3037,4.2997,4.3006,4.3006,4.3028,4.3043,4.3056,4.2879,4.2878,4.2878,0,0,4.3158,4.3141,4.3173,4.316,4.3139,4.311,4.3118,4.3085,4.307,4.3095,4.3041,4.3052,4.3063,4.3051,4.3047,4.3146,4.3104,4.3148,4.3215,4.324,4.3252,4.3263,4.3297,4.331,4.3155,4.3155,4.3155,0,4.3226,4.3243,4.3195,4.3215,4.3212,4.3148,4.318,4.317,4.3151,4.3151,4.3119,4.313,4.3113,4.315,4.3174,4.3173,4.318,4.3151,4.3254,4.3265,4.3274,4.3306,4.3319,4.3161,4.316,4.316,4.3159,0,4.3328,4.3341,4.337,4.3352,4.3353,4.3379,4.3335,4.3341,4.3309,4.3282,4.3309,4.3286,4.3282,4.3289,4.3258,4.3321,4.3303,4.3264,4.3208,4.3296,4.3324,4.3336,4.3168,4.3166,4.3165,4.3164,0,0,4.3488,4.3444,4.3455,4.3446,4.3418,4.3427,4.345,4.3446,4.3452,4.3442,4.3459,4.347,4.3433,4.3428,4.3395,4.3417,4.3495,4.3374,4.3373,4.3396,4.3561,4.359,4.3605,4.3468,4.347,4.3471,4.3562,0,4.3583,4.362,4.3577,4.3622,4.3633,4.3572,4.3592,4.3578,4.3554,4.356,4.3534,4.3541,4.3493,4.3489,4.3508,4.3481,4.3527,4.3474,4.3483,4.3484,4.3488,4.362,4.365,4.3737,4.3573,4.3575,4.3577,0,4.3699,4.3693,4.374,4.3708,4.3711,4.373,4.3722,4.3729,4.3711,4.3692,4.3686,4.3646,4.3667,4.3613,4.364,4.3605,4.3606,4.3594,4.3596,4.3594,4.3535,4.362,4.3764,4.3777,4.3594,4.3593,4.3592,0,4.3809,4.3813,4.3841,4.3835,4.38,4.3814,4.38,4.3779,4.3779,4.3773,4.3772,4.3769,4.3767,4.3765,4.3725,4.369,4.3757,4.37,4.3741,4.3742,4.3756,4.3756,4.3901,4.376,4.376,4.376,4.376,0,4.3919,4.395,4.389,4.3907,4.3939,4.389,4.3923,4.3903,4.3885,4.3897,4.3845,4.3857,4.3804,4.3811,4.378,4.3806,4.3806,4.3791,4.3782,4.3795,4.3797,4.3794,4.3786,4.3763,4.3763,4.3762,4.3761,0,4.4047,4.4008,4.4034,4.3998,4.399,4.4015,4.3984,4.3998,4.3971,4.3987,4.3988,4.3946,4.3951,4.3911,4.391,4.3888,4.3929,4.3911,4.3935,4.3929,4.3971,4.3967,4.4119,4.4136,4.3986,4.3987,4.3988,0,4.4119,4.4141,4.4107,4.4111,4.4099,4.4106,4.4106,4.4058,4.406,4.4041,4.4057,4.4058,4.4056,4.4068,4.4037,4.4035,4.4015,4.4068,4.4014,4.4026,4.4014,4.4012,4.4014,4.4079,4.4081,4.4082,4.4084,0,4.425,4.4229,4.423,4.4225,4.4225,4.4219,4.4209,4.4215,4.4164,4.4168,4.4173,4.4171,4.4169,4.417,4.4162,4.4147,4.4107,4.4101,4.411,4.4122,4.4135,4.4127,4.3964,4.4097,4.4096,4.4095,4.4094,4.4094,4.4351,4.4367,4.4345,4.4348,4.4335,4.4327,4.4338,4.4312,4.4315,4.4309,4.4281,4.429,4.4271,4.4256,4.4245,4.4252,4.4226,4.4239,4.4243,4.4246,4.4253,4.4135,4.425,4.425,4.4249,4.4249,4.4249,0,4.4478,4.4461,4.4464,4.4451,4.4453,4.4415,4.4401,4.4406,4.4414,4.44,4.4399,4.4403,4.4404,4.4374,4.4371,4.4382,4.4363,4.4382,4.438,4.4377,4.4277,4.4269,4.4397,4.4397,4.4397,4.4397,4.4397,4.4397,4.4544,4.4568,4.4546,4.4564,4.4546,4.4554,4.455,4.4542,4.453,4.4537,4.4538,4.4517,4.4496,4.4491,4.449,4.4481,4.4482,4.4507,4.4492,4.4399,4.4384,4.4371,4.4362,4.4508,4.4508,4.4591,4.4592,4.4592]}]]